Greenland, New Hampshire, United States (03840)
Lat: 43.04N, Lon: 70.83W
Wx Zone: NHZ014
Local Info
Past Weather Observations for Wednesday, February 25, 2015

NOTE: This archive is for the closest National Weather Service station to Greenland. Information may differ from the station used for current weather conditions.

Click here for Long-term Archive

Time Weather Temperature Dewpoint Humidity Pressure Winds Precip Visibility
23:58
Partly Cloudy
19°F / -7°C 3°F / -16°C 49% 29.98 in
(1015 mb)
W 3.5 mph
(W 6 kph)
- 10SM
22:58
Partly Cloudy
21°F / -6°C 3°F / -16°C 45% 29.98 in
(1015 mb)
SSW 9.2 mph
(SSW 15 kph)
- 10SM
21:58
Partly Cloudy
23°F / -5°C 3°F / -16°C 42% 29.95 in
(1014 mb)
SSW 4.6 mph
(SSW 7 kph)
- 10SM
20:58
Partly Cloudy
25°F / -4°C 5°F / -15°C 42% 29.89 in
(1012 mb)
SSW 8.1 mph
(SSW 13 kph)
- 10SM
19:58
Partly Cloudy
25°F / -4°C 7°F / -14°C 46% 29.86 in
(1011 mb)
W 8.1 mph
(W 13 kph)
- 10SM
18:58
Partly Cloudy
27°F / -3°C 7°F / -14°C 43% 29.83 in
(1010 mb)
SSW 5.8 mph
(SSW 9 kph)
- 10SM
17:58
Partly Cloudy
28°F / -2°C 7°F / -14°C 40% 29.77 in
(1008 mb)
W 8.1 mph
(W 13 kph)
- 10SM
16:58
Partly Cloudy
32°F / 0°C 7°F / -14°C 34% 29.74 in
(1007 mb)
W 13.8 mph
(W 22 kph)
- 10SM
15:58
Partly Cloudy
34°F / 1°C 7°F / -14°C 32% 29.71 in
(1006 mb)
W 13.8 mph
(W 22 kph)
- 10SM
14:58
Partly Cloudy
34°F / 1°C 7°F / -14°C 32% 29.68 in
(1005 mb)
W 13.8 mph
(W 22 kph)
- 10SM
13:58
Partly Cloudy
34°F / 1°C 9°F / -13°C 35% 29.65 in
(1004 mb)
W 12.7 mph
(W 20 kph)
- 10SM
12:58
Partly Cloudy
32°F / 0°C 7°F / -14°C 34% 29.65 in
(1004 mb)
W 13.8 mph
(W 22 kph)
- 10SM
11:58
Clear
28°F / -2°C 7°F / -14°C 40% 29.68 in
(1005 mb)
W 11.5 mph
(W 19 kph)
- 10SM
10:58
Clear
28°F / -2°C 7°F / -14°C 40% 29.71 in
(1006 mb)
SSW 9.2 mph
(SSW 15 kph)
- 10SM
09:58
Clear
23°F / -5°C 10°F / -12°C 58% 29.71 in
(1006 mb)
SSW 6.9 mph
(SSW 11 kph)
- 10SM
08:58
Partly Cloudy
18°F / -8°C 10°F / -12°C 73% 29.71 in
(1006 mb)
W 5.8 mph
(W 9 kph)
- 10SM
07:58
Overcast
12°F / -11°C 9°F / -13°C 85% 29.71 in
(1006 mb)
SSW 2.3 mph
(SSW 4 kph)
- 10SM
06:58
Mostly Cloudy
10°F / -12°C 7°F / -14°C 85% 29.68 in
(1005 mb)
NW 3.5 mph
(NW 6 kph)
- 10SM
05:58
Mostly Cloudy
9°F / -13°C 5°F / -15°C 85% 29.71 in
(1006 mb)
NW 3.5 mph
(NW 6 kph)
- 10SM
04:58
Partly Cloudy
10°F / -12°C 7°F / -14°C 85% 29.71 in
(1006 mb)
NNW 3.5 mph
(NNW 6 kph)
0.00 in
(0.00 mm)
10SM
04:19
Overcast
14°F / -10°C 10°F / -12°C 85% 29.74 in
(1007 mb)
NW 4.6 mph
(NW 7 kph)
- 8SM
03:58
Overcast
Light Snow
14°F / -10°C 10°F / -12°C 85% 29.74 in
(1007 mb)
NW 5.8 mph
(NW 9 kph)
0.01 in
(0.25 mm)
8SM
03:43
Overcast
Light Snow
14°F / -10°C 10°F / -12°C 85% 29.77 in
(1008 mb)
NW 6.9 mph
(NW 11 kph)
- 5SM
02:58
Overcast
Light Snow
16°F / -9°C 10°F / -12°C 79% 29.77 in
(1008 mb)
NW 3.5 mph
(NW 6 kph)
0.00 in
(0.00 mm)
1 1/2SM
01:58
Overcast
Light Snow
16°F / -9°C 10°F / -12°C 79% 29.83 in
(1010 mb)
NW 6.9 mph
(NW 11 kph)
0.00 in
(0.00 mm)
4SM
00:58
Overcast
Light Snow
14°F / -10°C 9°F / -13°C 79% 29.86 in
(1011 mb)
SSW 2.3 mph
(SSW 4 kph)
0.00 in
(0.00 mm)
4SM
Time Weather Temperature Dewpoint Humidity Pressure Winds Precip Visibility


Weather for websites

WeatherForYou.com, LLC is not responsible for any damages or problems caused by this service. Current weather conditions are obtained from the closest station including government and personal stations which may have varying degrees of accuracy. Weather forecasts are derived from the NOAA NDFD. Like all things, this site belongs to Jesus Christ... He just trusts me to maintain it. If you have any questions or comments email webmaster@weatherforyou.com

Copyright © 2015, WeatherForYou.com LLC. All rights reserved.